SCP
0 0 0 0 0 0 0 0 0 0 0 0 0 0 0 0 0 0 -0 0 0 0 0 0 0 0 0 0 -0 0 0 0 0 0 0 0 0 0 0 0 0 0 0 0 0
0 0 0 0 0 0 0 0 0 0 0 0 0 0 0 0 0 0 0 0 0 0 0 0 0 0 0 0 0 0 0 0 0 0 0 0 0 0 0 0 0 0 0 0 0
0 0 0 0 0 0 0 0 0 0 0 0 0 0 0 0 0 0 0 0 0 0 0 0 0 0 0 0 0 0 0 0 0 0 0 0 0 0 0 0 0 0 -0 0 0
0 0 0 0 0 0 0 0 0 0 0 0 0 0 0 0 0 0 0 0 0 0 0 0 0 0 0 0 0 0 0 0 0 0 0 0 0 0 0 0 0 0 0 0 0
0 0 0 0 0 0 0 0 0 0 0 0 0 0 0 0 0 0 0 0 0 0 0 0 0 0 0 0 0 0 0 0 0 0 0 0 0 0 0 0 0 0 0 0 0
0 0 0 0 0 0 0 0 0 0 0 0 0 0 0 0 0 0 0 0 0 0 0 0 0 0 0 0 0 0 0 0 0 0 0 0 0 0 0 0 0 0 0 0 0
0 0 0 0 0 0 0 0 0 0 0 0 0 0 0 0 0 0 0 0 0 0 0 0 0 0 0 0 0 0 0 0 0 0 0 0 0 0 0 0 0 0 0 0 0
0 0 0 0 0 0 0 0 0 0 0 0 0 -0 -0 0 0 0 0 0 0 0 0 0 0 0 0 0 0 0 0 0 0 0 0 0 0 0 0 0 0 0 0 0 0
0 0 0 0 0 0 0 0 -0 -0 -0 0 -0 -0 0 0 -0 0 0 0 0 0 0 0 0 0 0 0 0 0 0 0 0 0 0 0 0 0 0 0 0 0 0 0 0
0 0 0 0 0 0 0 -0 -0 -0 -0 -0 0 0 -0 0 0 0 0 0 0 0 0 0 0 0 0 0 0 0 0 0 0 0 0 0 0 0 0 0 0 0 0 0 0
0 0 0 0 0 0 0 0 -0 -0 -0 0 0 0 0 0 0 0 0 0 0 0 0 0 0 0 0 0 0 0 0 0 0 0 0 0 0 0 0 0 0 0 0 0 0
-0 -0 0 0 0 -0 -0 0 0 0 0 -0 -0 0 -0 0 0 0 0 0 0 0 0 0 0 0 0 0 0 0 0 0 0 0 0 0 0 0 0 0 0 0 0 0 0
-0 -0 -0 0 0 -0 0 0 0 0 -0 -0 -0 -0 0 0 0 0 0 0 0 0 0 0 0 0 0 0 0 0 0 0 0 0 0 0 0 0 0 0 0 0 0 0 0
0 0 0 0 -0 0 -0 0 0 0 -0 -0 -0 -0 -0 0 0 -0 0 0 0 0 0 0 0 0 0 0 0 0 0 0 0 0 0 0 0 0 0 0 0 0 0 0 0
0 0 0 0 0 0 0 0 0 -0 -0 0 0 0 0 -0 0 0 0 0 0 0 0 0 0 0 0 0 0 -0 0 0 0 0 0 0 0 -0 0 0 0 0 0 0 0
0 0 0 0 0 0 0 0 -0 -0 -0 0 -0 0 0 -0 0 0 -0 -0 0 0 0 0 0 0 0 0 0 0 0 0 0 0 0 0 0 -0 -0 0 0 -0 0 0 0
0 0 0 0 0 0 0 -0 -0 0 0 0 0 0 0 0 0 -0 0 0 0 0 0 0 0 0 0 0 0 0 0 0 0 0 0 0 0 0 -0 -0 0 0 -0 0 0
0 -0 0 0 0 0 0 -0 -0 -0 0 0 0 0 0 -0 0 0 -0 0 0 0 0 0 0 0 0 0 0 0 0 0 0 0 0 0 0 0 -0 0 -0 -0 0 0 0
0 0 0 0 0 0 0 -0 -0 -0 -0 -0 -0 0 0 -0 0 0 0 0 0 0 0 0 0 0 0 0 0 0 0 0 0 0 0 0 0 0 0 -0 -0 0 0 0 0
0 0 0 0 0 0 0 -0 -0 0 -0 -0 0 0 -0 0 0 -0 0 0 0 -0 0 0 0 0 0 0 0 0 0 0 0 0 0 0 0 0 0 0 0 0 -0 -0 0
0 0 0 0 0 0 0 0 -0 0 0 -0 -0 -0 -0 -0 0 0 0 0 0 0 0 0 0 0 -0 0 0 0 0 0 0 0 0 0 0 0 0 0 0 0 -0 -0 -0
0 0 0 0 0 0 0 0 -0 0 0 0 -0 -0 -0 -0 -0 0 0 0 -0 -0 0 0 0 0 0 0 0 0 0 0 0 0 0 0 0 0 0 0 0 0 0 -0 -0
0 0 0 0 0 0 0 -0 -0 0 -0 -0 -0 -0 -0 -0 -0 0 -0 -0 -0 -0 0 0 -0 0 0 0 0 0 0 0 0 0 0 0 0 0 0 0 0 -0 0 -0 -0
0 0 0 0 0 0 0 0 0 -0 -0 -0 -0 -0 0 -0 -0 -0 0 -0 -0 -0 -0 0 0 0 0 0 0 0 0 0 0 0 0 -0 0 0 -0 0 0 0 0 0 -0
0 0 0 0 0 0 0 0 0 -0 -0 -0 0 0 -0 -0 -0 -0 -0 0 -0 0 -0 0 0 -0 0 0 0 0 0 0 0 0 0 0 0 0 0 0 0 0 0 0 -0
0 0 0 0 0 0 0 0 0 0 0 -0 -0 -0 -0 -0 -0 -0 -0 0 -0 -0 -0 0 0 0 -0 0 0 0 0 0 0 0 0 0 0 0 0 0 0 0 0 0 0
0 0 0 0 0 0 0 0 -0 -0 0 0 -0 -0 -0 -0 -0 -0 -0 -0 -0 0 0 0 0 0 -0 -0 0 0 0 0 0 0 0 0 0 0 0 0 0 0 0 0 0
Wind_Speed_500mb
29 31 28 29 30 32 34 34 34 33 33 40 47 52 55 52 50 41 44 37 29 29 36 17 30 38 30 45 53 44 33 35 42 42 34 31 17 25 7 22 24 24 31 33 34
31 33 34 32 31 32 33 34 36 37 36 36 38 45 47 49 51 51 55 52 40 36 33 34 40 41 44 49 60 51 32 51 43 38 38 35 23 32 19 26 37 38 42 35 23
32 35 36 36 37 37 35 35 36 38 38 37 36 34 40 38 42 48 44 53 57 55 51 41 43 41 53 58 60 58 48 48 48 55 56 48 38 39 44 33 40 36 49 37 42
33 34 35 37 39 39 39 39 37 36 37 39 39 35 30 17 18 6 17 38 36 50 53 55 58 62 55 52 70 59 69 64 64 71 62 47 60 49 54 51 43 50 59 54 49
34 33 34 36 37 40 41 42 42 39 37 36 38 37 32 23 41 38 31 17 13 20 50 63 71 68 63 61 64 63 56 70 74 73 72 73 73 58 65 65 60 59 60 58 57
37 37 38 38 39 39 39 40 41 39 40 40 35 33 26 47 24 31 36 34 25 24 30 53 63 70 77 72 67 76 78 80 83 84 83 66 72 79 66 77 77 61 63 64 61
37 38 40 42 44 45 45 43 40 37 38 41 39 30 37 57 34 31 30 40 42 38 41 42 59 68 75 68 86 86 70 69 72 72 65 67 74 69 75 78 78 66 67 66 53
33 35 38 40 42 43 44 44 44 42 36 36 35 24 38 28 36 46 43 48 45 49 47 38 35 67 77 66 72 67 67 60 62 66 68 56 69 57 75 70 65 58 65 51 57
43 43 44 42 42 41 39 40 34 35 35 28 19 24 46 14 26 24 40 48 41 49 51 48 35 48 56 47 43 56 58 71 62 60 55 56 75 56 69 70 70 66 46 53 64
48 49 50 50 50 52 52 35 36 21 11 9 19 16 39 32 9 12 9 20 34 41 50 55 42 36 38 44 54 62 65 64 65 56 57 62 70 56 62 57 69 61 53 67 67
49 51 53 53 52 49 50 40 10 16 23 30 31 34 43 24 33 33 21 20 23 40 52 55 39 50 83 75 65 62 52 66 62 55 60 59 62 45 55 69 61 64 53 66 68
50 51 55 53 53 43 22 26 20 16 28 53 62 69 67 57 59 52 38 38 35 40 45 48 59 91 58 64 64 63 63 65 59 58 50 50 57 49 50 49 67 67 65 62 74
53 53 55 54 43 18 27 25 16 21 23 59 49 50 48 36 56 54 53 55 46 45 50 61 83 54 70 65 61 63 63 60 64 51 52 52 52 59 58 59 64 82 82 71 52
51 52 55 54 24 25 19 20 15 22 14 29 22 12 20 14 21 31 47 60 51 57 46 53 68 69 69 68 69 65 61 56 54 45 43 45 43 66 50 51 51 67 57 46 58
55 59 50 30 25 17 21 20 18 13 12 13 15 12 11 16 18 11 23 33 45 53 46 62 59 75 70 83 65 75 49 54 51 40 48 59 36 50 42 47 49 36 53 60 42
58 49 32 22 19 18 23 19 13 11 21 6 7 13 25 22 13 8 12 34 31 43 58 59 69 59 80 69 60 61 57 54 45 37 39 58 44 47 44 50 43 47 54 52 48
51 28 31 20 20 25 18 14 10 15 15 13 24 9 23 34 12 32 12 26 24 30 47 61 62 59 65 62 71 60 52 33 38 37 55 39 39 48 47 40 50 45 46 34 37
33 25 24 21 26 16 8 10 13 34 27 37 28 32 35 38 28 22 21 28 37 29 40 49 54 67 57 62 72 63 60 36 66 29 41 47 51 44 40 37 51 27 22 30 34
23 14 13 26 13 7 17 9 22 27 31 28 33 37 35 27 28 24 33 23 13 14 16 34 63 54 68 48 54 79 55 71 48 46 32 34 33 32 34 25 28 37 44 34 38
17 12 13 18 10 8 7 12 18 22 28 33 33 24 30 26 8 38 13 2 13 2 30 31 23 65 58 62 59 66 56 45 43 55 45 28 25 18 14 32 39 37 31 47 42
18 14 10 12 9 7 7 14 25 30 21 19 36 35 32 35 31 30 11 10 9 18 29 37 9 34 64 66 60 49 46 61 42 37 34 31 21 6 8 24 15 32 40 52 48
15 9 8 10 8 14 13 22 32 24 30 16 22 26 25 27 26 29 25 4 15 19 22 26 11 32 46 35 64 62 65 59 36 53 33 23 12 11 9 31 10 24 38 53 49
22 18 4 11 9 14 30 33 36 21 25 18 19 22 34 28 18 6 18 22 10 5 9 18 19 27 12 42 54 63 68 55 54 30 42 27 17 12 12 8 22 27 47 45 48
15 9 12 11 7 12 26 26 29 37 19 19 33 24 23 32 28 20 21 14 21 14 19 15 29 38 21 17 44 57 64 52 54 34 31 42 26 12 20 20 13 11 28 42 51
13 8 7 9 17 23 29 32 27 19 28 44 21 21 34 32 37 20 15 16 8 15 10 9 26 55 36 31 47 65 52 61 50 51 40 42 29 22 22 26 19 22 31 44 51
12 15 20 40 23 25 28 21 30 25 27 30 36 38 34 33 34 41 33 25 10 9 6 11 15 43 38 28 48 22 33 55 49 57 40 18 35 22 23 14 18 22 28 39 46
11 18 17 24 13 13 15 24 30 34 21 26 32 37 38 39 41 54 55 46 25 15 18 10 11 23 26 36 44 25 30 31 45 47 43 33 11 16 15 14 13 9 18 36 43
Wind_Direction_500mb
343 340 339 338 334 330 329 327 322 313 297 286 280 278 280 282 279 272 265 246 233 232 243 235 205 206 222 227 224 233 252 248 250 258 266 275 239 248 295 291 281 273 271 271 285
333 332 331 330 327 328 327 326 324 322 323 318 297 284 282 283 282 276 258 242 241 235 223 216 209 206 221 233 234 230 237 246 252 265 265 262 269 269 217 240 261 266 266 267 265
332 331 330 328 327 325 323 320 319 319 321 322 321 320 291 292 305 275 255 246 244 240 230 224 232 220 230 231 233 230 240 256 252 258 266 271 266 277 277 274 273 277 282 302 293
330 327 325 325 324 322 320 316 315 315 317 318 319 322 325 293 253 346 259 238 232 223 231 230 231 238 232 234 233 244 239 249 257 271 273 260 266 261 265 274 283 279 283 286 285
335 330 324 320 318 316 316 315 315 316 314 312 314 314 320 252 243 291 292 270 244 246 226 222 225 222 237 235 239 238 244 248 257 262 262 269 279 273 269 272 281 280 280 281 280
341 337 332 328 325 320 315 314 311 312 309 306 303 299 288 266 259 253 256 258 252 243 242 228 229 228 239 242 243 249 253 256 259 260 264 269 269 264 259 268 273 274 278 275 278
340 336 332 330 328 326 324 320 312 303 297 296 293 280 265 252 258 261 260 256 255 252 253 244 236 236 240 247 250 257 261 261 256 257 261 257 264 261 266 269 272 270 272 268 274
341 334 329 327 325 323 323 318 312 306 297 284 281 249 255 263 267 264 259 258 252 244 239 242 249 240 242 254 250 249 253 257 252 253 249 247 259 265 267 269 266 269 271 276 278
349 341 334 330 326 327 325 321 310 294 288 280 267 230 268 271 243 267 250 248 247 242 238 238 241 242 232 239 251 237 243 241 252 248 250 242 256 261 269 265 268 267 273 271 281
350 345 340 333 328 325 324 331 316 293 321 265 240 243 251 252 245 274 257 255 245 233 224 220 227 230 230 219 227 230 236 244 254 256 243 246 256 252 263 265 266 268 266 273 281
346 343 340 334 333 332 328 340 288 245 228 257 283 231 277 255 276 273 260 252 242 228 221 204 211 217 220 219 236 241 247 247 251 239 244 261 265 249 258 259 261 262 263 273 280
342 338 337 336 335 336 3 327 322 299 295 277 268 262 259 265 272 258 252 243 234 232 222 217 214 222 226 229 229 242 250 252 260 259 254 249 261 266 258 258 270 274 266 272 278
343 337 334 332 337 5 318 313 290 309 275 281 271 260 252 247 250 246 240 234 240 230 227 221 225 229 227 235 235 234 235 243 251 259 258 267 267 263 258 266 266 270 271 268 272
340 334 330 327 325 314 319 319 320 314 282 277 187 181 185 220 255 234 238 228 237 236 240 236 237 231 228 231 229 235 229 240 251 258 259 254 263 258 259 255 259 258 259 255 255
339 333 331 329 309 327 312 315 302 276 280 123 134 147 218 233 326 43 212 225 239 237 230 239 230 231 235 225 225 242 234 236 240 249 259 255 257 265 272 265 266 258 258 258 256
341 339 353 355 333 320 308 291 289 248 243 126 165 15 261 230 250 230 224 245 251 243 250 242 243 235 233 239 225 239 235 242 245 247 249 246 245 264 261 263 262 255 257 248 235
347 355 14 357 312 318 315 275 241 252 3 38 348 313 300 289 222 263 270 283 260 218 235 243 245 246 237 224 236 224 224 225 230 228 243 247 244 257 266 270 249 244 257 227 177
0 28 355 353 324 310 281 247 258 351 14 333 333 315 294 286 254 254 240 257 265 244 282 224 233 230 224 226 216 222 211 215 218 222 241 232 243 255 266 241 250 251 270 156 168
9 354 348 336 343 329 294 264 3 8 346 328 313 282 275 284 272 262 267 259 308 343 294 262 230 229 226 226 229 214 210 219 246 231 246 258 235 226 250 238 244 239 224 199 170
356 319 345 357 326 309 276 319 341 345 340 320 302 297 308 303 300 286 357 73 285 43 284 285 274 231 228 219 235 229 211 209 225 240 243 232 253 215 224 227 227 237 215 185 165
354 288 352 350 18 288 303 326 329 339 352 327 316 305 306 300 291 291 265 139 306 306 286 287 273 266 232 201 211 217 211 213 224 229 235 251 246 171 248 272 231 206 198 172 170
305 312 341 332 323 292 295 340 303 310 307 306 301 299 308 320 312 282 278 260 207 297 306 297 287 260 240 282 211 213 217 203 222 217 236 268 196 97 224 247 253 195 168 163 172
315 302 270 330 317 329 324 311 282 304 316 325 310 314 315 317 301 305 264 111 184 291 313 351 248 255 226 233 211 225 202 209 215 230 210 227 191 145 264 192 224 185 154 157 168
318 323 341 321 302 279 312 316 324 310 330 307 302 306 318 325 309 296 289 176 209 253 249 292 266 262 234 248 198 217 205 208 196 218 198 222 108 184 209 139 125 98 135 163 168
343 284 334 296 309 310 292 289 309 328 337 308 295 329 334 320 316 308 312 285 228 7 267 236 263 244 241 297 315 197 218 206 206 210 221 197 218 203 139 87 82 134 158 159 166
324 332 318 296 292 308 300 295 314 334 326 304 306 318 324 318 303 300 320 316 348 7 278 267 273 257 256 252 278 266 220 202 212 202 232 188 183 209 271 9 105 125 164 170 174
311 317 294 287 301 311 297 324 311 316 306 298 308 305 301 304 309 293 288 280 264 250 275 264 296 278 230 227 260 240 207 228 206 201 215 224 165 220 234 257 280 215 166 189 187
Wind_Speed_850mb
29 31 28 29 30 32 34 34 34 33 33 40 47 52 55 52 50 41 44 37 29 29 36 17 30 38 30 45 53 44 33 35 42 42 34 31 17 25 7 22 24 24 31 33 34
31 33 34 32 31 32 33 34 36 37 36 36 38 45 47 49 51 51 55 52 40 36 33 34 40 41 44 49 60 51 32 51 43 38 38 35 23 32 19 26 37 38 42 35 23
32 35 36 36 37 37 35 35 36 38 38 37 36 34 40 38 42 48 44 53 57 55 51 41 43 41 53 58 60 58 48 48 48 55 56 48 38 39 44 33 40 36 49 37 42
33 34 35 37 39 39 39 39 37 36 37 39 39 35 30 17 18 6 17 38 36 50 53 55 58 62 55 52 70 59 69 64 64 71 62 47 60 49 54 51 43 50 59 54 49
34 33 34 36 37 40 41 42 42 39 37 36 38 37 32 23 41 38 31 17 13 20 50 63 71 68 63 61 64 63 56 70 74 73 72 73 73 58 65 65 60 59 60 58 57
37 37 38 38 39 39 39 40 41 39 40 40 35 33 26 47 24 31 36 34 25 24 30 53 63 70 77 72 67 76 78 80 83 84 83 66 72 79 66 77 77 61 63 64 61
37 38 40 42 44 45 45 43 40 37 38 41 39 30 37 57 34 31 30 40 42 38 41 42 59 68 75 68 86 86 70 69 72 72 65 67 74 69 75 78 78 66 67 66 53
33 35 38 40 42 43 44 44 44 42 36 36 35 24 38 28 36 46 43 48 45 49 47 38 35 67 77 66 72 67 67 60 62 66 68 56 69 57 75 70 65 58 65 51 57
43 43 44 42 42 41 39 40 34 35 35 28 19 24 46 14 26 24 40 48 41 49 51 48 35 48 56 47 43 56 58 71 62 60 55 56 75 56 69 70 70 66 46 53 64
48 49 50 50 50 52 52 35 36 21 11 9 19 16 39 32 9 12 9 20 34 41 50 55 42 36 38 44 54 62 65 64 65 56 57 62 70 56 62 57 69 61 53 67 67
49 51 53 53 52 49 50 40 10 16 23 30 31 34 43 24 33 33 21 20 23 40 52 55 39 50 83 75 65 62 52 66 62 55 60 59 62 45 55 69 61 64 53 66 68
50 51 55 53 53 43 22 26 20 16 28 53 62 69 67 57 59 52 38 38 35 40 45 48 59 91 58 64 64 63 63 65 59 58 50 50 57 49 50 49 67 67 65 62 74
53 53 55 54 43 18 27 25 16 21 23 59 49 50 48 36 56 54 53 55 46 45 50 61 83 54 70 65 61 63 63 60 64 51 52 52 52 59 58 59 64 82 82 71 52
51 52 55 54 24 25 19 20 15 22 14 29 22 12 20 14 21 31 47 60 51 57 46 53 68 69 69 68 69 65 61 56 54 45 43 45 43 66 50 51 51 67 57 46 58
55 59 50 30 25 17 21 20 18 13 12 13 15 12 11 16 18 11 23 33 45 53 46 62 59 75 70 83 65 75 49 54 51 40 48 59 36 50 42 47 49 36 53 60 42
58 49 32 22 19 18 23 19 13 11 21 6 7 13 25 22 13 8 12 34 31 43 58 59 69 59 80 69 60 61 57 54 45 37 39 58 44 47 44 50 43 47 54 52 48
51 28 31 20 20 25 18 14 10 15 15 13 24 9 23 34 12 32 12 26 24 30 47 61 62 59 65 62 71 60 52 33 38 37 55 39 39 48 47 40 50 45 46 34 37
33 25 24 21 26 16 8 10 13 34 27 37 28 32 35 38 28 22 21 28 37 29 40 49 54 67 57 62 72 63 60 36 66 29 41 47 51 44 40 37 51 27 22 30 34
23 14 13 26 13 7 17 9 22 27 31 28 33 37 35 27 28 24 33 23 13 14 16 34 63 54 68 48 54 79 55 71 48 46 32 34 33 32 34 25 28 37 44 34 38
17 12 13 18 10 8 7 12 18 22 28 33 33 24 30 26 8 38 13 2 13 2 30 31 23 65 58 62 59 66 56 45 43 55 45 28 25 18 14 32 39 37 31 47 42
18 14 10 12 9 7 7 14 25 30 21 19 36 35 32 35 31 30 11 10 9 18 29 37 9 34 64 66 60 49 46 61 42 37 34 31 21 6 8 24 15 32 40 52 48
15 9 8 10 8 14 13 22 32 24 30 16 22 26 25 27 26 29 25 4 15 19 22 26 11 32 46 35 64 62 65 59 36 53 33 23 12 11 9 31 10 24 38 53 49
22 18 4 11 9 14 30 33 36 21 25 18 19 22 34 28 18 6 18 22 10 5 9 18 19 27 12 42 54 63 68 55 54 30 42 27 17 12 12 8 22 27 47 45 48
15 9 12 11 7 12 26 26 29 37 19 19 33 24 23 32 28 20 21 14 21 14 19 15 29 38 21 17 44 57 64 52 54 34 31 42 26 12 20 20 13 11 28 42 51
13 8 7 9 17 23 29 32 27 19 28 44 21 21 34 32 37 20 15 16 8 15 10 9 26 55 36 31 47 65 52 61 50 51 40 42 29 22 22 26 19 22 31 44 51
12 15 20 40 23 25 28 21 30 25 27 30 36 38 34 33 34 41 33 25 10 9 6 11 15 43 38 28 48 22 33 55 49 57 40 18 35 22 23 14 18 22 28 39 46
11 18 17 24 13 13 15 24 30 34 21 26 32 37 38 39 41 54 55 46 25 15 18 10 11 23 26 36 44 25 30 31 45 47 43 33 11 16 15 14 13 9 18 36 43
Wind_Direction_850mb
343 340 339 338 334 330 329 327 322 313 297 286 280 278 280 282 279 272 265 246 233 232 243 235 205 206 222 227 224 233 252 248 250 258 266 275 239 248 295 291 281 273 271 271 285
333 332 331 330 327 328 327 326 324 322 323 318 297 284 282 283 282 276 258 242 241 235 223 216 209 206 221 233 234 230 237 246 252 265 265 262 269 269 217 240 261 266 266 267 265
332 331 330 328 327 325 323 320 319 319 321 322 321 320 291 292 305 275 255 246 244 240 230 224 232 220 230 231 233 230 240 256 252 258 266 271 266 277 277 274 273 277 282 302 293
330 327 325 325 324 322 320 316 315 315 317 318 319 322 325 293 253 346 259 238 232 223 231 230 231 238 232 234 233 244 239 249 257 271 273 260 266 261 265 274 283 279 283 286 285
335 330 324 320 318 316 316 315 315 316 314 312 314 314 320 252 243 291 292 270 244 246 226 222 225 222 237 235 239 238 244 248 257 262 262 269 279 273 269 272 281 280 280 281 280
341 337 332 328 325 320 315 314 311 312 309 306 303 299 288 266 259 253 256 258 252 243 242 228 229 228 239 242 243 249 253 256 259 260 264 269 269 264 259 268 273 274 278 275 278
340 336 332 330 328 326 324 320 312 303 297 296 293 280 265 252 258 261 260 256 255 252 253 244 236 236 240 247 250 257 261 261 256 257 261 257 264 261 266 269 272 270 272 268 274
341 334 329 327 325 323 323 318 312 306 297 284 281 249 255 263 267 264 259 258 252 244 239 242 249 240 242 254 250 249 253 257 252 253 249 247 259 265 267 269 266 269 271 276 278
349 341 334 330 326 327 325 321 310 294 288 280 267 230 268 271 243 267 250 248 247 242 238 238 241 242 232 239 251 237 243 241 252 248 250 242 256 261 269 265 268 267 273 271 281
350 345 340 333 328 325 324 331 316 293 321 265 240 243 251 252 245 274 257 255 245 233 224 220 227 230 230 219 227 230 236 244 254 256 243 246 256 252 263 265 266 268 266 273 281
346 343 340 334 333 332 328 340 288 245 228 257 283 231 277 255 276 273 260 252 242 228 221 204 211 217 220 219 236 241 247 247 251 239 244 261 265 249 258 259 261 262 263 273 280
342 338 337 336 335 336 3 327 322 299 295 277 268 262 259 265 272 258 252 243 234 232 222 217 214 222 226 229 229 242 250 252 260 259 254 249 261 266 258 258 270 274 266 272 278
343 337 334 332 337 5 318 313 290 309 275 281 271 260 252 247 250 246 240 234 240 230 227 221 225 229 227 235 235 234 235 243 251 259 258 267 267 263 258 266 266 270 271 268 272
340 334 330 327 325 314 319 319 320 314 282 277 187 181 185 220 255 234 238 228 237 236 240 236 237 231 228 231 229 235 229 240 251 258 259 254 263 258 259 255 259 258 259 255 255
339 333 331 329 309 327 312 315 302 276 280 123 134 147 218 233 326 43 212 225 239 237 230 239 230 231 235 225 225 242 234 236 240 249 259 255 257 265 272 265 266 258 258 258 256
341 339 353 355 333 320 308 291 289 248 243 126 165 15 261 230 250 230 224 245 251 243 250 242 243 235 233 239 225 239 235 242 245 247 249 246 245 264 261 263 262 255 257 248 235
347 355 14 357 312 318 315 275 241 252 3 38 348 313 300 289 222 263 270 283 260 218 235 243 245 246 237 224 236 224 224 225 230 228 243 247 244 257 266 270 249 244 257 227 177
0 28 355 353 324 310 281 247 258 351 14 333 333 315 294 286 254 254 240 257 265 244 282 224 233 230 224 226 216 222 211 215 218 222 241 232 243 255 266 241 250 251 270 156 168
9 354 348 336 343 329 294 264 3 8 346 328 313 282 275 284 272 262 267 259 308 343 294 262 230 229 226 226 229 214 210 219 246 231 246 258 235 226 250 238 244 239 224 199 170
356 319 345 357 326 309 276 319 341 345 340 320 302 297 308 303 300 286 357 73 285 43 284 285 274 231 228 219 235 229 211 209 225 240 243 232 253 215 224 227 227 237 215 185 165
354 288 352 350 18 288 303 326 329 339 352 327 316 305 306 300 291 291 265 139 306 306 286 287 273 266 232 201 211 217 211 213 224 229 235 251 246 171 248 272 231 206 198 172 170
305 312 341 332 323 292 295 340 303 310 307 306 301 299 308 320 312 282 278 260 207 297 306 297 287 260 240 282 211 213 217 203 222 217 236 268 196 97 224 247 253 195 168 163 172
315 302 270 330 317 329 324 311 282 304 316 325 310 314 315 317 301 305 264 111 184 291 313 351 248 255 226 233 211 225 202 209 215 230 210 227 191 145 264 192 224 185 154 157 168
318 323 341 321 302 279 312 316 324 310 330 307 302 306 318 325 309 296 289 176 209 253 249 292 266 262 234 248 198 217 205 208 196 218 198 222 108 184 209 139 125 98 135 163 168
343 284 334 296 309 310 292 289 309 328 337 308 295 329 334 320 316 308 312 285 228 7 267 236 263 244 241 297 315 197 218 206 206 210 221 197 218 203 139 87 82 134 158 159 166
324 332 318 296 292 308 300 295 314 334 326 304 306 318 324 318 303 300 320 316 348 7 278 267 273 257 256 252 278 266 220 202 212 202 232 188 183 209 271 9 105 125 164 170 174
311 317 294 287 301 311 297 324 311 316 306 298 308 305 301 304 309 293 288 280 264 250 275 264 296 278 230 227 260 240 207 228 206 201 215 224 165 220 234 257 280 215 166 189 187